Погода в Уеге

Погода в Уеге : погода сейчас, прогноз погоды и архив. Всё, что Вы хотите узнать о погоде в Уеге!

Поиск расширенной информации на нашем сайте:

Другие новости

Новости СМИ2

Главная страница сайта

Новости сайта

02.10.2013

Напоминаем, что на нашем новом сайте вы можете получить высокодетализированные прогнозы погоды по пунктам России, СНГ и мира (включающие важные для авиации метеовеличины, такие как направление и скорость ветра, видимость, явления погоды, количество и форма облачности, нижняя и верхняя граница облачности), а также ознакомиться с разнообразными материалами по авиационной метеорологии и подборкой полезных ссылок на эту тему.

Сайт Метеоцентр.Азия посвящён разработке технологий оптимизации авиаметеорологического обслуживания, включая проектирование и перспективное создание нескольких автоматизированных авиаметеорологических систем:
- система выпуска высокодетальных прогностических карт явлений погоды для нижнего воздушного пространства по России и ближнему зарубежью;
- система верификации прогнозов TAF (выпускаемых синоптиками официальных АМСГ РФ и ближнего зарубежья) и AUTOTAF (выпускаемых сайтом Метеоцентр.Азия) - выявление ошибок, онлайн-сопоставление с фактической погодой METAR, автоматическое внесение коррективов в прогнозы при резком отклонении фактической погоды от прогноза, подсчёт оправдываемости прогнозов по элементам и в целом;
- система обработки, анализа и отображения авиаметеорологической информации для применения провайдерами метеорологической информации.


Погода в Уеге - сегодня

Время (UTC), дата Ветер
(°,м/с) 
Видим.   Явления Облачность Т
(°С)
Тd
(°С)
f(%) Тe
(°С)
Pmin
(гПа)
dP
(гПа)
Po
(мм)
O2
(г/м3)
Тmin Tmax R s Состояние
почвы
09 16.01.17 360 (С) 20000 м    ясно 
-20.9 -25.5 66 -24  1032.9  734  322    -13.3       
12 16.01.17 350 (С) 20000 м    ясно 
-18.5 -25.2 56 -23  1032.8  0.4  735  319           
15 16.01.17 340 (С) 20000 м    ясно 
-20.7 -26.3 61 -24  1032.8  -0.5  734  322           
18 16.01.17 360 (С) 20000 м    ясно 
-22.5 -27.5 64 -25  1033.1  -0.2  734  324           
21 16.01.17 350 (С) 20000 м    ясно 
-23.1 -28.4 62 -26  1033.2  734  325  -23.8      12  равномерный
сухой снег
100% 
00 17.01.17 350 (С) 20000 м    ясно 
-23.3 -28.4 63 -24  1032.8  -0.4  734  325  -26         
03 17.01.17 360 (С) 20000 м    ясно 
-18.9 -27.6 46 -22  1031.1  -0.7  733  319           
06 17.01.17 340 (С) 20000 м    ясно 
-22.3 -28.9 55 -23  1031.3  -0.6  733  323           
09 17.01.17 340 (С) 20000 м    ясно 
-28.9 -32.2 73 -33  1032.7  733  332    -18.6       
12 17.01.17 330 (СЗ) 20000 м    ясно 
-29.3 -32.3 75 -30  1032.5  -0.3  733  333           
15 17.01.17 340 (С) 20000 м    ясно 
-26.7 -30.6 70 -30  1031.2  -0.6  732  329           
18 17.01.17 350 (С) 20000 м    ясно 
-30.3 -33.6 73 -34  1031.4  -0.6  732  333           
21 17.01.17 320 (СЗ) 20000 м    ясно 
-31 -34.9 68 -35  1030.9  -0.6  731  334  -31      12  равномерный
сухой снег
100% 
00 18.01.17 350 (С) 20000 м    ясно 
-29.2 -32.6 72 -33  1029.9  -0.5  731  332  -33.1         
03 18.01.17 350 (С) 20000 м    ясно 
-23.1 -30.5 51 -26  1026.8  -1.6  730  323           
06 18.01.17 340 (С) 20000 м    ясно 
-26.1 -32.2 56 -27  1026.5  -0.9  729  327           
09 18.01.17 280 (З) 20000 м    ясно 
-33.5 -37.1 70 -34  1028  -0.2  729  337    -22.3       
12 18.01.17 320 (СЗ) 20000 м    ясно 
-33.3 -36.8 71 -34  1027.5  -0.4  728  336           
15 18.01.17 тихо ()   20000 м    ясно 
-35.6 -39.5 67 -36  1027.4  -0.7  728  339           
18 18.01.17 тихо ()   20000 м    ясно 
-35.9 -39.9 67 -36  1026.8  -0.6  727  339           
21 18.01.17 тихо ()   20000 м    ясно 
-35.8 -39.8 67 -36  1026.3  -0.5  727  339  -36.9      12  равномерный
сухой снег
100% 
00 19.01.17 тихо ()   20000 м    ясно 
-36.3 -40.4 66 -36  1026.5  0.1  727  340  -37.8         
03 19.01.17 тихо ()   20000 м    3/0 верхняя 
[Ci fib]
-26.1 -31.6 60 -26  1022.9  -1.1  726  325           
06 19.01.17 тихо ()   20000 м    4/0 верхняя 
[Ci fib]
-27.5 -31.9 66 -28  1023  -0.2  726  327           
09 19.01.17 330 (СЗ) 20000 м    ясно 
-33.3 -36.7 71 -34  1024.5  0.1  726  335    -24       
Время (UTC), дата Ветер
(°,м/с) 
Видим.   Явления Облачность Т
(°С)
Тd
(°С)
f(%) Тe
(°С)
Pmin
(гПа)
dP
(гПа)
Po
(мм)
O2
(г/м3)
Тmin Tmax R s Состояние
почвы

Для получения пояснительной информации подведите курсор к названию столбца.

ПОГОДА в Уеге - архив

Всё, что Вы хотите узнать о погоде в Уеге - удобно и подробно!

Выберите нужную дату (начиная с 1 января 2015* года) и нажмите кнопку "Найти".
Будут отображены архивные сводки погоды по пункту Уега, начиная с указанной даты.


Отображать данные в формате CSV (для использования в таблицах Excel)


Внимание! Наш архив погоды предназначен исключительно для личного некоммерческого использования в познавательных целях. Если Вам необходимы официальные справки о состоянии погоды (для производственных, юридических, коммерческих и т.п. целей), обращайтесь в органы Росгидромета.

*Примечание: данная дата относится к архиву по метеостанциям СССР (Россия, СНГ, Балтия).
Архив по метеостанциям Зарубежной Европы и Азии (кроме Китая) хранится 10 дней, по другим регионам земного шара (Китай, Африка, Америка, Австралия, Океания) - 1 день.

Уега - район местоположения метеостанции


Название, широта, долгота, высота метеостанции:
Уега 60.7°ш. 142.8°д. 398 м над ур. моря [Российская Федерация]

Дополнительная информация

В oтличие oт бoльшинства пoгoдных сайтoв мы публикуем пoдрoбную метеoинфoрмацию в детальнoм прoфессиoнальнoм фoрмате.

Характеристики температуры и влажнoсти вoздуха измеряются на высoте 2 м в тени вдали oт зданий и деревьев.
Скoрoсть ветра измеряется на высoте 10 м (на урoвне рoста челoвека скoрoсть ветра ниже в 1.5-2 раза). Если метеoстанция нахoдится в гoрoде или в лесу, тo скoрoсть ветра занижена на 2-4 м/с пo сравнению с oткрытым местoм. Скoрoсть ветра над акватoриями крупных рек и oзёр, а также на вершинах хoлмoв на 2-5 м/с выше, чем в oбычных услoвиях.
Атмoсфернoе давление в разных тoчках местнoсти мoжет значительнo oтличаться oт давления на метеoстанции, в зависимoсти oт услoвий рельефа (при пoдъёме на 10 м давление пoнижается примернo на 1 мм рт.ст.).